User: anonymous   Login
Location: Zagreb
(45.8000°N, 16.0000°E)
Time: 19:16:28
(UTC+02:00)
Language:

Vanguard 3 - Orbit

View from above orbital plane
View from above orbital plane
View from above satellite
View from above satellite

Ground track
Ground track

The orbit data is extracted from the following two-line orbital elements,

1    20U 59007A   20221.74367195  .00000303  00000-0  11553-3 0  9996
2    20  33.3476 355.7910 1665499 184.1360 174.3702 11.55705259236682
Epoch (UTC): 08 August 2020 17:50:53
Eccentricity: 0.1665499
inclination: 33.3476°
perigee height: 509 km
apogee height: 3262 km
right ascension of ascending node: 355.7910°
argument of perigee: 184.1360°
revolutions per day: 11.55705259
mean anomaly at epoch: 174.3702°
orbit number at epoch: 23668

The dashed part of the orbit path shows where the satellite is in the earth's shadow,  

DLR